Regional Weather Roundup
Issued by NWS

Home | Current Version | Previous Version | Text Only | Print | Product List | Glossary Off
Versions: 1 2 3 4 5 6 7 8 9 10 11 12 13 14 15 16 17 18 19 20 21 22 23 24 25 26 27 28 29 30 31 32 33 34 35 36 37 38 39 40 41 42 43 44 45 46 47 48 49 50

710
ASUS45 KPSR 262010
RWRAZ

ARIZONA HOURLY REGIONAL WEATHER ROUNDUP
NATIONAL WEATHER SERVICE PHOENIX AZ
100 PM MST SUN MAR 26 2017

NOTE: FAIR INDICATES FEW OR NO CLOUDS BELOW 12,000 FEET WITH NO
SIGNIFICANT WEATHER AND/OR OBSTRUCTIONS TO VISIBILITY.

AZZ001>003-036-262100-
NORTHWEST ARIZONA

CITY           SKY/WX    TMP DP  RH WIND       PRES   REMARKS
BULLHEAD CITY  SUNNY     77  32  19 VRB3      29.94F
KINGMAN        SUNNY     65  14  14 S3        30.03F
$$

AZZ004>008-015-016-018-262100-
NORTH CENTRAL ARIZONA

CITY           SKY/WX    TMP DP  RH WIND       PRES   REMARKS
GRAND CANYON   SUNNY     52  18  26 NW12      30.07S
WILLIAMS       SUNNY     52  23  32 NW8G16    30.09S
PRESCOTT       SUNNY     59  26  28 N10       30.06F
FLAGSTAFF      SUNNY     53   9  17 W12       30.05F
PAYSON         SUNNY     61  21  21 NW12G17   30.07F
PAGE           SUNNY     59  37  44 NE5       29.99F
$$

AZZ009>014-017-262100-
NORTHEAST ARIZONA

CITY           SKY/WX    TMP DP  RH WIND       PRES   REMARKS
WINSLOW        SUNNY     62  26  25 W12       30.03F
SAINT JOHNS    SUNNY     59  24  26 NW17      30.02F
WINDOW ROCK    PTSUNNY   53  29  39 W7        30.03S
SHOW LOW       MOSUNNY   54  19  26 SW10      30.05F
$$

AZZ023-262100-
GREATER PHOENIX AREA

CITY           SKY/WX    TMP DP  RH WIND       PRES   REMARKS
PHOENIX        PTSUNNY   81  32  17 S8        29.93F
BUCKEYE        SUNNY     75  30  19 CALM      29.95F
GLENDALE       MOSUNNY   77  32  19 SE8       29.96F
LUKE AFB       SUNNY     77  32  19 CALM      29.93F
DEER VALLEY    SUNNY     74  30  19 CALM      29.94F
SCOTTSDALE     SUNNY     76  30  18 VRB5      29.96F
MESA-FALCON    MOSUNNY  N/A N/A N/A SW9G17    29.92F
MESA-GATEWAY   MOSUNNY   75  34  22 CALM      29.96F
CHANDLER       SUNNY     77  32  19 CALM      29.95F
$$

AZZ027-028-262100-
SOUTHWEST MARICOPA COUNTY AND PINAL COUNTY

CITY           SKY/WX    TMP DP  RH WIND       PRES   REMARKS
CASA GRANDE    NOT AVBL
GILA BEND      PTSUNNY   79  28  15 VRB3      29.93F
$$

AZZ503-504-507>509-262100-
SOUTHEAST ARIZONA

CITY           SKY/WX    TMP DP  RH WIND       PRES   REMARKS
TUCSON         SUNNY     75  23  14 W5        29.99F
DAVIS-MONTHAN  SUNNY     73  28  18 NW8       29.98F
RYAN FIELD     SUNNY     73  28  19 NE5       30.00F
NOGALES        SUNNY     72  28  19 VRB6      30.01F
SIERRA VISTA   SUNNY     70  21  16 W13G20    30.04F
DOUGLAS        SUNNY     71  24  17 W13G21    30.01F
SAFFORD        SUNNY     73  22  14 NW10G24   29.95F
$$

AZZ020-021-025-026-031-262100-
SOUTHWEST ARIZONA

CITY           SKY/WX    TMP DP  RH WIND       PRES   REMARKS
YUMA           SUNNY     80  42  25 W6        29.93F
$$

CAZ031-033-041-043-047-048-061-262100-
SOUTHERN CALIFORNIA

CITY           SKY/WX    TMP DP  RH WIND       PRES   REMARKS
DOWNTOWN L.A.  PTSUNNY   68  49  50 CALM      30.05F
L.A. AIRPORT   MOSUNNY   65  54  67 SW13      30.07S
SAN DIEGO      PTSUNNY   63  51  65 SW10      30.09F
BURBANK        MOSUNNY   65  47  52 VRB3      30.04F
ONTARIO        PTSUNNY   64  49  57 W7        30.06S
RIVERSIDE      PTSUNNY   69  50  50 SW7       30.05F
PALM SPRINGS   SUNNY     80  43  26 N12G21    29.96F
EL CENTRO NAS  SUNNY     81  34  18 VRB3      29.95F
IMPERIAL       SUNNY     79  42  26 CALM      29.93F
BLYTHE         SUNNY     79  38  22 VRB7      29.94F
NEEDLES        SUNNY     77  34  21 CALM      29.95F
$$

NVZ020-UTZ003-262100-
SOUTHERN NEVADA-UTAH

CITY           SKY/WX    TMP DP  RH WIND       PRES   REMARKS
LAS VEGAS      MOSUNNY   68  31  25 VRB6      29.98F
SALT LAKE CITY PTSUNNY   54  26  34 CALM      30.02F
$$

NMZ009-TXZ055-262100-
NEW MEXICO-WEST TEXAS

CITY           SKY/WX    TMP DP  RH WIND       PRES   REMARKS
ALBUQUERQUE    MOSUNNY   62  25  24 NW12      29.95F
EL PASO        MOSUNNY   73  21  14 W22G28    29.94F
$$


........................KEY........................
SKY/WX - SKY CONDITION/WEATHER
TMP    - TEMPERATURE IN FAHRENHEIT
DP     - DEW POINT IN FAHRENHEIT
RH     - RELATIVE HUMIDITY IN PERCENT
WIND   - DIRECTION AND SPEED IN MILES PER HOUR (MPH)
VRB    - VARIABLE WIND DIRECTION
PRES   - MEAN SEA LEVEL PRESSURE IN INCHES OF MERCURY
         F - FALLING PRESSURE   R - RISING PRESSURE
         S - STEADY PRESSURE
VSB    - VISIBILITY IN MILES
HX     - HEAT INDEX IN FAHRENHEIT
WCI    - WIND CHILL INDEX IN FAHRENHEIT
TC     - TEMPERATURE IN CELSIUS WHICH IS ALSO KNOWN AS
         TEMPERATURE IN CENTIGRADE
AFB    - AIR FORCE BASE
         LUKE AFB IS LUKE AIR FORCE BASE
         DAVIS-MONTHAN IS DAVIS-MONTHAN AIR FORCE BASE
NAS    - NAVAL AIR STATION
         EL CENTRO NAS IS EL CENTRO NAVAL AIR STATION
N/A    - NOT AVAILABLE





USA.gov is the U.S. government's official web portal to all federal, state and local government web resources and services.